Location: Amsterdam
(30.7274°N, 84.4357°W)
Time: 02:25:05
(UTC+00:00)

Tiros 1 - Pass Details

Date: 22 February 2026
Orbit: 618 x 649 km, 48.4° (Epoch: 13 March)

Event Time Altitude Azimuth Distance (km) Brightness Sun altitude
Rises 18:02:53 0° 319° (NW) 2,892 10.2 49.2°
Reaches altitude 10° 18:05:27 10° 331° (NNW) 1,981 9.4 49.1°
Maximum altitude 18:09:27 30° 32° (NNE) 1,119 8.3 49.0°
Drops below altitude 10° 18:13:26 10° 94° (E) 1,972 9.7 48.9°
Sets 18:15:58 0° 105° (ESE) 2,876 10.5 48.9°
